Location: Boiro
(42.6475°N, 8.8834°W)
Time: 14:51:47
(UTC+01:00)

S-56A Canister/Altair - All Passes

Search period start: 09 December 2021 00:00
Search period end: 19 December 2021 00:00
Orbit: 633 x 2500 km, 38.9° (Epoch: 08 December)

Date Brightness Start Highest point End Pass type
(mag) Time Alt. Az. Time Alt. Az. Time Alt. Az.
09 Dec - 01:29:36 10° WSW 01:40:29 68° S 01:47:31 10° E night (unlit)
09 Dec - 03:36:16 10° W 03:44:41 56° SSW 03:50:19 10° ESE night (unlit)
09 Dec - 05:42:59 10° W 05:47:33 20° SW 05:51:17 10° S visible
09 Dec - 20:48:48 10° S 20:57:45 20° SE 21:05:22 10° E visible
09 Dec - 22:50:12 10° SW 23:02:35 45° SSE 23:11:27 10° E visible
10 Dec - 00:55:58 10° WSW 01:07:34 67° S 01:15:07 10° E visible
10 Dec - 03:02:48 10° W 03:12:01 61° SSW 03:18:04 10° ESE night (unlit)
10 Dec - 05:09:31 10° W 05:15:09 25° SW 05:19:28 10° SSE visible
10 Dec - 20:16:19 10° S 20:24:39 18° SE 20:31:58 10° E visible
10 Dec - 22:16:50 10° SW 22:29:28 42° SSE 22:38:46 10° E visible
11 Dec - 00:22:18 10° WSW 00:34:35 66° S 00:42:41 10° E visible
11 Dec - 02:29:14 10° W 02:39:16 65° SSW 02:45:47 10° ESE night (unlit)
11 Dec - 04:36:03 10° W 04:42:41 30° SW 04:47:32 10° SSE night (unlit)
11 Dec - 19:44:07 10° SSE 19:51:32 16° SE 19:58:17 10° ESE visible
11 Dec - 21:43:31 10° SSW 21:56:17 40° SSE 22:06:02 10° E visible
11 Dec - 23:48:38 10° WSW 00:01:32 65° SSE 00:10:12 10° E visible
12 Dec - 01:55:37 10° W 02:06:27 68° S 02:13:28 10° ESE night (unlit)
12 Dec - 04:02:33 10° W 04:10:10 36° SSW 04:15:31 10° SSE night (unlit)
12 Dec - 19:12:19 10° SSE 19:18:26 14° SE 19:24:11 10° ESE visible
12 Dec - 21:10:18 10° SSW 21:23:05 38° SSE 21:33:12 10° E visible
12 Dec - 23:15:00 10° WSW 23:28:24 64° SSE 23:37:39 10° E visible
13 Dec - 01:21:56 10° W 01:33:34 71° S 01:41:05 10° ESE night (unlit)
13 Dec - 03:29:01 10° W 03:37:35 42° SSW 03:43:26 10° SE night (unlit)
13 Dec - 05:39:29 10° SW 05:39:50 10° SW 05:40:10 10° SW night (unlit)
13 Dec - 18:41:19 10° SSE 18:45:21 12° SE 18:49:16 10° ESE visible
13 Dec - 20:37:11 10° SSW 20:49:50 35° SE 21:00:15 10° E visible
13 Dec - 22:41:22 10° WSW 22:55:12 62° SSE 23:05:04 10° E visible
14 Dec - 00:48:12 10° W 01:00:35 72° S 01:08:41 10° E visible
14 Dec - 02:55:25 10° W 03:04:56 48° SSW 03:11:17 10° SE night (unlit)
14 Dec - 05:03:53 10° WSW 05:07:26 14° SW 05:10:29 10° SSW night (unlit)
14 Dec - 20:04:11 10° SSW 20:16:35 33° SE 20:27:12 10° E visible
14 Dec - 22:07:48 10° SW 22:21:57 60° SSE 22:32:23 10° E visible
15 Dec - 00:14:28 10° W 00:27:31 73° S 00:36:13 10° E visible
15 Dec - 02:21:46 10° W 02:32:12 54° SSW 02:39:04 10° SE night (unlit)
15 Dec - 04:29:44 10° W 04:35:00 18° SW 04:39:12 10° S night (unlit)
15 Dec - 19:31:20 10° SSW 19:43:20 30° SE 19:54:00 10° E visible
15 Dec - 21:34:18 10° SW 21:48:39 57° SSE 21:59:38 10° E visible
15 Dec - 23:40:43 10° WSW 23:54:23 74° S 00:03:42 10° E visible
16 Dec - 01:48:04 10° W 01:59:23 59° SSW 02:06:48 10° ESE night (unlit)
16 Dec - 03:55:50 10° W 04:02:31 23° SW 04:07:36 10° S night (unlit)
16 Dec - 18:58:39 10° S 19:10:05 27° SE 19:20:39 10° E visible
16 Dec - 21:00:54 10° SW 21:15:17 55° SSE 21:26:49 10° E visible
16 Dec - 23:06:59 10° WSW 23:21:09 74° S 23:31:07 10° E visible
17 Dec - 01:14:20 10° W 01:26:28 63° SSW 01:34:28 10° ESE visible
17 Dec - 03:22:00 10° W 03:29:59 28° SW 03:35:47 10° SSE night (unlit)
17 Dec - 18:26:08 10° S 18:36:53 24° SE 18:47:07 10° E visible
17 Dec - 20:27:35 10° SW 20:41:55 52° SSE 20:53:54 10° E visible
17 Dec - 22:33:17 10° WSW 22:47:51 73° S 22:58:28 10° E visible
18 Dec - 00:40:34 10° W 00:53:27 67° SSW 01:02:04 10° ESE visible
18 Dec - 02:48:11 10° W 02:57:21 33° SW 03:03:51 10° SSE night (unlit)
18 Dec - 17:53:51 10° S 18:03:41 22° SE 18:13:21 10° E daylight
18 Dec - 19:54:23 10° SW 20:08:30 49° SSE 20:20:52 10° E visible
18 Dec - 21:59:37 10° WSW 22:14:29 72° S 22:25:44 10° E visible
